CW0677 Weather Reports


Display with metric or nautical units.
time (UTC)temp
F
wind
direction
speed
MPH
gust
MPH
rain 1hr
in
rain 24hr
in
rain mn
in
humidity
%
barometer
mb
20260831151610 55 158 2.0 5.0 0.00 0.00 0.00 89 1013.2
20260831150106 55 230 0.0 4.0 0.00 0.00 0.00 89 1013.2
20260831144636 55 111 1.0 5.0 0.00 0.00 0.00 89 1013.0
20260831143107 55 202 2.0 7.0 0.00 0.00 0.00 90 1012.7
20260831141601 55 159 2.0 5.0 0.00 0.00 0.00 91 1012.5
20260831140059 54 190 1.0 4.0 0.00 0.00 0.00 92 1012.4
20260831134605 54 134 1.0 4.0 0.00 0.00 0.00 92 1012.4
20260831133107 54 0 0.0 0.0 0.00 0.00 0.00 92 1012.2
20260831131601 54 0 0.0 0.0 0.00 0.00 0.00 92 1012.3
20260831130112 54 0 0.0 0.0 0.00 0.00 0.00 92 1012.3
20260831124602 54 0 0.0 0.0 0.00 0.00 0.00 92 1012.2
20260831123103 54 0 0.0 0.0 0.00 0.00 0.00 92 1012.2
20260831121559 53 0 0.0 0.0 0.00 0.00 0.00 92 1012.3
20260831120108 53 0 0.0 1.0 0.00 0.00 0.00 92 1012.3
20260831114610 53 0 0.0 1.0 0.00 0.00 0.00 92 1012.2
20260831113106 52 0 0.0 3.0 0.00 0.00 0.00 92 1012.1
20260831111616 52 299 0.0 3.0 0.00 0.00 0.00 91 1012.1
20260831110141 52 0 0.0 0.0 0.00 0.00 0.00 91 1012.2
20260831104602 52 0 0.0 0.0 0.00 0.00 0.00 91 1012.2
20260831103107 52 0 0.0 0.0 0.00 0.00 0.00 91 1012.0
20260831101605 53 0 0.0 1.0 0.00 0.00 0.00 90 1011.9
20260831100108 53 314 0.0 3.0 0.00 0.00 0.00 90 1011.8
20260831094605 53 0 0.0 0.0 0.00 0.00 0.00 90 1011.6
20260831093104 53 0 0.0 0.0 0.00 0.00 0.00 90 1011.5
20260831091604 54 0 0.0 0.0 0.00 0.00 0.00 90 1011.6
20260831090105 54 0 0.0 0.0 0.00 0.00 0.00 89 1011.6
20260831084607 54 0 0.0 0.0 0.00 0.00 0.00 89 1011.8
20260831083104 54 0 0.0 0.0 0.00 0.00 0.00 89 1012.0
20260831081633 54 0 0.0 0.0 0.00 0.00 0.00 89 1011.8
20260831080107 55 0 0.0 0.0 0.00 0.00 0.00 89 1011.9
20260831074606 55 0 0.0 2.0 0.00 0.00 0.00 88 1012.1
20260831073200 55 250 0.0 4.0 0.00 0.00 0.00 88 1012.2
20260831071559 55 238 1.0 4.0 0.00 0.00 0.00 88 1012.1
20260831070108 56 0 0.0 4.0 0.00 0.00 0.00 87 1012.1
20260831064611 56 215 0.0 5.0 0.00 0.00 0.00 87 1012.0
20260831063105 56 138 0.0 4.0 0.00 0.00 0.00 87 1011.9
20260831061608 56 209 1.0 4.0 0.00 0.00 0.00 87 1011.9
20260831060116 56 200 2.0 9.0 0.00 0.00 0.00 87 1012.0
20260831054614 56 224 2.0 6.0 0.00 0.00 0.00 86 1011.8
20260831053110 56 192 1.0 6.0 0.00 0.00 0.00 86 1011.8
20260831051602 56 171 2.0 8.0 0.00 0.00 0.00 86 1011.7
20260831050143 57 194 3.0 8.0 0.00 0.00 0.00 85 1011.9
20260831044606 57 175 3.0 12.0 0.00 0.00 0.00 84 1011.9
20260831043105 57 221 3.0 11.0 0.00 0.00 0.00 83 1011.8
20260831041607 58 233 2.0 9.0 0.00 0.00 0.00 82 1011.8
20260831040104 59 167 3.0 9.0 0.00 0.00 0.00 81 1011.6
20260831034605 59 232 2.0 8.0 0.00 0.00 0.00 80 1011.5
20260831033108 60 205 3.0 7.0 0.00 0.00 0.00 79 1011.5
20260831031606 61 217 2.0 7.0 0.00 0.00 0.00 77 1011.4
20260831030107 62 172 2.0 7.0 0.00 0.00 0.00 75 1011.3
20260831024607 63 160 2.0 9.0 0.00 0.00 0.00 73 1011.1
20260831023110 65 205 3.0 11.0 0.00 0.00 0.00 70 1011.1
20260831021609 66 220 3.0 8.0 0.00 0.00 0.00 68 1011.0
20260831020112 68 169 4.0 10.0 0.00 0.00 0.00 65 1011.1
20260831014607 70 182 3.0 9.0 0.00 0.00 0.00 62 1011.1
20260831013107 71 184 3.0 10.0 0.00 0.00 0.00 61 1011.2
20260831011606 72 126 4.0 11.0 0.00 0.00 0.00 59 1011.2
20260831010134 74 186 3.0 11.0 0.00 0.00 0.00 55 1011.1
20260831004614 76 169 4.0 10.0 0.00 0.00 0.00 52 1011.1
20260831003105 77 217 4.0 13.0 0.00 0.00 0.00 50 1011.3
20260831001604 79 253 4.0 11.0 0.00 0.00 0.00 48 1011.3
20260831000109 79 203 5.0 12.0 0.00 0.00 0.00 46 1011.4
20260830234612 79 236 4.0 12.0 0.00 0.00 0.00 47 1011.4
20260830233108 79 210 6.0 13.0 0.00 0.00 0.00 49 1011.4
20260830231604 80 256 5.0 12.0 0.00 0.00 0.00 49 1011.6
20260830230105 80 259 4.0 13.0 0.00 0.00 0.00 48 1011.5
20260830224605 81 277 5.0 13.0 0.00 0.00 0.00 47 1011.6
20260830223104 81 290 5.0 11.0 0.00 0.00 0.00 46 1011.7
20260830221608 82 232 5.0 13.0 0.00 0.00 0.00 46 1011.8
20260830220112 81 280 5.0 11.0 0.00 0.00 0.00 46 1011.9
20260830214604 80 292 7.0 13.0 0.00 0.00 0.00 48 1012.0
20260830213107 81 346 6.0 13.0 0.00 0.00 0.00 48 1012.3
20260830211604 82 166 6.0 11.0 0.00 0.00 0.00 47 1012.5
20260830210106 81 283 3.0 8.0 0.00 0.00 0.00 48 1012.4
20260830204619 81 248 2.0 6.0 0.00 0.00 0.00 48 1012.5
20260830203103 80 271 1.0 8.0 0.00 0.00 0.00 49 1012.7
20260830201630 79 176 2.0 7.0 0.00 0.00 0.00 51 1012.9
20260830200105 77 344 1.0 8.0 0.00 0.00 0.00 53 1013.1
20260830194608 77 172 2.0 9.0 0.00 0.00 0.00 54 1013.2
20260830193108 76 0 2.0 5.0 0.00 0.00 0.00 54 1013.3
20260830191631 75 287 3.0 6.0 0.00 0.00 0.00 57 1013.5
20260830190115 73 150 2.0 7.0 0.00 0.00 0.00 59 1013.6
20260830184604 72 151 1.0 7.0 0.00 0.00 0.00 60 1013.8
20260830183102 71 0 2.0 5.0 0.00 0.00 0.00 61 1013.8
20260830181604 69 295 2.0 5.0 0.00 0.00 0.00 63 1013.9
20260830174608 68 298 0.0 5.0 0.00 0.00 0.00 67 1014.0
20260830173108 66 271 2.0 6.0 0.00 0.00 0.00 69 1014.1
20260830171603 66 257 1.0 4.0 0.00 0.00 0.00 70 1014.1
20260830170110 66 279 1.0 4.0 0.00 0.00 0.00 70 1014.0
20260830164600 65 224 1.0 4.0 0.00 0.00 0.00 71 1014.0
20260830163105 62 0 0.0 3.0 0.00 0.00 0.00 76 1014.0
20260830161612 61 0 0.0 2.0 0.00 0.00 0.00 76 1014.0
20260830160107 61 0 0.0 2.0 0.00 0.00 0.00 75 1014.0
20260830154609 60 0 0.0 0.0 0.00 0.00 0.00 78 1014.1
20260830153103 57 0 0.0 2.0 0.00 0.00 0.00 83 1014.2